Weather History for Cross City, FL

Change the Weather History Date:

Thursday, July 25, 2013

  Actual Average Record
Temperature  
Mean Temperature 79 °F 82 °F  
Max Temperature 85 °F 91 °F 95 °F (2011)
Min Temperature 73 °F 72 °F 69 °F (2003)
Degree Days  
Heating Degree Days 0 0  
Month to date heating degree days 0 0  
Since 1 June heating degree days 0 0  
Since 1 July heating degree days 0 0  
Cooling Degree Days 14 17  
Month to date cooling degree days 384 409  
Year to date cooling degree days 1362 1335  
Since 1 June cooling degree days 827 856  
Growing Degree Days 28 (Base 50)    
Moisture  
Dew Point 73 °F    
Average Humidity 85    
Maximum Humidity 94    
Minimum Humidity 65    
Precipitation  
Precipitation 0.00 in 0.21 in 0.70 in (2008)
Month to date precipitation 19.62 4.44  
Year to date precipitation 41.50 26.70  
Sea Level Pressure  
Sea Level Pressure 29.93 in    
Wind  
Wind Speed 4 mph (WSW)    
Max Wind Speed 16 mph    
Max Gust Speed 21 mph    
T = Trace of Precipitation, MM = Missing Value Source: NWS Daily Summary

Daily Weather History Graph

Daily Weather History Graph

Search for Another Location

Airport:

Trip Planner

Search our weather history database for the weather conditions in past years. The results will help you decide how hot, cold, wet, or windy it might be!

Date:

Astronomy

Jul. 25, 2013 Rise Set
Actual Time 6:48 AM EDT 8:29 PM EDT
Civil Twilight 6:21 AM EDT 8:55 PM EDT
Nautical Twilight 5:50 AM EDT 9:27 PM EDT
Astronomical Twilight 5:17 AM EDT 10:00 PM EDT
Moon 10:08 AM EDT (5/25) 9:56 AM EDT (7/25)
Length of Visible Light 14h 33m
Length of Day
13h 41m
Waning Gibbous, 88% of the Moon is Illuminated
Jul 25
Waning Gibbous
Jul 29
Last Quarter
Aug 6
New
Aug 14
First Quarter
Aug 20
Full

Hourly Weather History & Observations

Time (EDT) Temp. Heat Index Dew Point Humidity Pressure Visibility Wind Dir Wind Speed Gust Speed Precip Events Conditions
12:53 AM 75.9 °F - 73.9 °F 94% 29.88 in - Calm Calm - 0.01 in   Unknown
1:53 AM 75.0 °F - 73.0 °F 94% 29.88 in - Calm Calm - N/A   Unknown
2:53 AM 75.0 °F - 73.0 °F 94% 29.88 in - Calm Calm - 0.01 in   Unknown
3:53 AM 73.9 °F - 72.0 °F 93% 29.87 in - Calm Calm - N/A   Unknown
4:53 AM 73.0 °F - 72.0 °F 96% 29.88 in - Calm Calm - 0.01 in   Unknown
5:53 AM 73.9 °F - 72.0 °F 93% 29.88 in - West 3.5 mph - 0.01 in   Unknown
6:53 AM 73.9 °F - 72.0 °F 93% 29.90 in - Calm Calm - 0.01 in   Unknown
7:53 AM 75.0 °F - 73.0 °F 94% 29.91 in - NW 3.5 mph - 0.01 in   Unknown
8:53 AM 75.9 °F - 73.9 °F 94% 29.93 in - Calm Calm - 0.01 in   Unknown
9:53 AM 79.0 °F - 73.9 °F 84% 29.94 in - WSW 4.6 mph - N/A   Unknown
10:53 AM 84.0 °F 89.6 °F 72.0 °F 67% 29.96 in - West 6.9 mph 16.1 mph N/A   Unknown
11:53 AM 79.0 °F - 73.9 °F 84% 29.97 in - WSW 5.8 mph - N/A   Unknown
12:53 PM 80.1 °F 85.1 °F 75.0 °F 85% 29.96 in - West 6.9 mph - N/A   Unknown
1:53 PM 82.9 °F 90.2 °F 75.0 °F 77% 29.97 in - West 11.5 mph - N/A   Unknown
2:53 PM 84.9 °F 91.4 °F 73.0 °F 67% 29.96 in - SW 11.5 mph 20.7 mph N/A   Unknown
3:53 PM 84.0 °F 90.2 °F 73.0 °F 69% 29.95 in - West 10.4 mph 17.3 mph N/A   Unknown
4:53 PM 82.9 °F 89.4 °F 73.9 °F 74% 29.94 in - West 10.4 mph - N/A   Unknown
5:53 PM 82.9 °F 89.4 °F 73.9 °F 74% 29.93 in - West 4.6 mph - N/A   Unknown
6:53 PM 82.9 °F 89.4 °F 73.9 °F 74% 29.94 in - West 6.9 mph - N/A   Unknown
7:53 PM 81.0 °F 86.2 °F 73.9 °F 79% 29.94 in - WSW 5.8 mph - N/A   Unknown
8:53 PM 79.0 °F - 73.9 °F 84% 29.95 in - Calm Calm - N/A   Unknown
9:53 PM 78.1 °F - 75.0 °F 90% 29.96 in - Calm Calm - N/A   Unknown
10:53 PM 75.9 °F - 73.9 °F 94% 29.97 in - SSE 3.5 mph - 0.01 in   Unknown
11:53 PM 75.9 °F - 73.9 °F 94% 29.98 in - Calm Calm - N/A   Unknown